Track INTELSAT 10 (PAS 10) now! INTELSAT 10 (PAS 10) is classified as:
1 26766U 01019A 21102.75925431 -.00000347 00000-0 00000+0 0 9994 2 26766 4.5745 76.8130 0004875 322.9164 175.4956 1.00633625 72967